Probability
0 0 0 0 0 0 0 0 0 0 0 0 0 0 0 0 0 0 0 0 0 0 0 0 0 0 0 0 0 0 0 0 0 0 0 0 0 0 0 1 2 2 3
0 0 0 0 0 0 0 0 0 0 0 0 0 0 0 0 0 0 0 0 0 0 0 0 0 0 0 0 0 0 0 0 0 0 0 0 0 0 0 0 1 2 3
0 0 0 0 0 0 0 0 0 0 0 0 0 0 0 0 0 0 0 0 0 0 0 0 0 0 0 0 0 0 0 0 0 0 0 0 0 0 0 0 0 2 3
0 0 0 0 0 0 0 0 0 0 0 0 0 0 0 0 0 0 0 0 0 0 0 0 0 0 0 0 0 0 0 0 0 0 0 0 0 0 0 0 0 1 2
0 0 0 0 0 0 0 0 0 0 0 0 0 0 0 0 0 0 0 0 0 0 0 0 0 0 0 0 0 0 0 0 0 0 0 0 0 0 0 0 0 0 1
0 0 0 0 0 0 0 0 0 0 0 0 0 0 0 0 0 0 0 0 0 0 0 0 0 0 0 0 0 0 0 0 0 0 0 0 0 0 0 0 0 0 0
0 0 0 0 0 0 0 0 0 0 0 0 0 0 0 0 0 0 0 0 0 0 0 0 0 0 0 0 0 0 0 0 0 0 0 0 0 0 0 0 0 0 0
0 0 0 0 0 0 0 0 0 0 0 0 0 0 0 0 0 0 0 0 0 0 0 0 0 0 0 0 0 0 0 0 0 0 0 0 0 0 0 0 0 0 0
0 0 0 0 0 0 0 0 0 0 0 0 0 0 0 0 0 0 0 0 0 0 0 0 0 0 0 0 0 0 0 0 0 0 0 0 0 0 0 0 0 0 0
0 0 0 0 0 0 0 0 0 0 0 0 0 0 0 0 0 0 0 0 0 0 0 0 0 0 0 0 0 0 0 0 0 0 0 0 0 0 0 0 0 0 0
0 0 0 0 0 0 0 0 0 0 0 0 0 0 0 0 0 0 0 0 0 0 0 0 0 0 0 0 0 0 0 0 0 0 0 0 0 0 0 0 0 0 0
0 0 0 0 0 0 0 0 0 0 0 0 0 0 0 0 0 0 0 0 0 0 0 0 0 0 0 0 0 0 0 0 0 0 0 0 0 0 0 0 0 0 0
0 0 0 0 0 0 0 0 0 0 0 0 0 0 0 0 0 0 0 0 0 0 0 0 0 0 0 0 0 0 0 0 0 0 0 0 0 0 0 0 0 0 0
0 0 0 0 0 0 0 0 0 0 0 0 0 0 0 0 0 0 0 0 0 0 0 0 0 0 0 0 0 0 0 0 0 0 0 0 0 0 0 0 0 0 0
0 0 0 0 0 0 0 0 0 0 0 0 0 0 0 0 0 0 0 0 0 0 0 0 0 0 0 0 0 0 0 0 0 0 0 0 0 0 0 0 0 0 0
0 0 0 0 0 0 0 0 0 0 0 0 0 0 0 0 0 0 0 0 0 0 0 0 0 0 0 0 0 0 0 0 0 0 0 0 0 0 0 0 0 0 0
0 0 0 0 0 0 0 0 0 0 0 0 0 0 0 0 0 0 0 0 0 0 0 0 0 0 0 0 0 0 0 0 0 0 0 0 0 0 0 0 0 0 0
0 0 0 0 0 0 0 0 0 0 0 0 0 0 0 0 0 0 0 0 0 0 0 0 0 0 0 0 0 0 0 0 0 0 0 0 0 0 0 0 0 0 0
0 0 0 0 0 0 0 0 0 0 0 0 0 0 0 0 0 0 0 0 0 0 0 0 0 0 0 0 0 0 0 0 0 0 0 0 0 0 0 0 0 0 0
0 0 0 0 0 0 0 0 0 0 0 0 0 0 0 0 0 0 0 0 0 0 0 0 0 0 0 0 0 0 0 0 0 0 0 0 0 0 0 0 0 0 0
0 0 0 0 0 0 0 0 0 0 0 0 0 0 0 0 0 0 0 0 0 0 0 0 0 0 0 0 0 0 0 0 0 0 0 0 0 0 0 0 0 0 0
0 0 0 0 0 0 0 0 0 0 0 0 0 0 0 0 0 0 0 0 0 0 0 0 0 0 0 0 0 0 0 0 0 0 0 0 0 0 0 0 0 0 0
0 0 0 0 0 0 0 0 0 0 0 0 0 0 0 0 0 0 0 0 0 0 0 0 0 0 0 0 0 0 0 0 0 0 0 0 0 0 0 0 0 0 0
0 0 0 0 0 0 0 0 0 0 0 0 0 0 0 0 0 0 0 0 0 0 0 0 0 0 0 0 0 0 0 0 0 0 0 0 0 0 0 0 0 0 0
0 0 0 0 0 0 0 0 0 0 0 0 0 0 0 0 0 0 0 0 0 0 0 0 0 0 0 0 0 0 0 0 0 0 0 0 0 0 0 0 0 0 0
0 0 0 0 0 0 0 0 0 0 0 0 0 0 0 0 0 0 0 0 0 0 0 0 0 0 0 0 0 0 0 0 0 0 0 0 0 0 0 0 0 0 0
Wind_Speed
6 5 4 4 4 3 3 3 2 2 2 2 2 2 2 2 2 2 3 3 3 3 3 3 4 3 3 2 2 2 3 4 5 5 3 3 4 6 5 5 5 5 5
6 5 5 4 3 3 3 3 2 2 2 2 2 2 3 3 2 3 4 3 3 4 4 4 5 3 4 3 3 4 4 4 5 6 4 3 5 5 5 6 5 4 5
6 6 5 4 4 4 4 3 3 3 3 2 2 3 3 3 3 4 4 4 4 5 5 5 6 5 5 4 4 5 4 4 5 5 5 3 4 4 4 4 5 4 5
6 6 6 5 5 4 4 3 3 3 3 3 3 3 4 4 4 4 4 5 5 5 5 6 6 6 7 6 5 6 5 5 4 5 5 5 4 4 3 3 4 3 4
7 6 6 5 4 3 3 3 3 3 4 3 3 4 4 4 4 5 5 5 5 6 6 6 6 8 10 8 6 6 5 5 5 5 5 4 4 3 4 3 4 5 5
7 7 5 4 4 4 4 3 3 4 4 3 4 5 5 5 6 8 6 5 6 6 7 7 7 8 9 9 10 9 8 7 7 6 5 6 7 5 4 4 4 4 4
7 6 6 5 5 4 4 3 4 4 4 4 5 5 6 7 10 10 9 6 6 7 7 7 6 6 7 7 8 9 8 10 10 8 8 9 7 6 5 6 5 6 6
7 6 6 5 5 4 4 4 4 3 4 4 5 5 6 8 10 10 9 6 6 7 7 7 7 8 7 7 7 7 8 8 8 8 9 9 9 7 7 7 6 6 7
7 7 6 6 6 5 4 5 4 3 4 4 5 5 6 9 10 10 7 4 5 7 7 7 7 8 10 8 7 8 9 8 8 9 10 11 12 11 8 5 5 5 6
8 8 6 6 6 6 6 5 3 3 4 5 6 6 7 8 10 10 7 3 5 6 6 6 9 10 10 9 7 7 9 9 7 7 7 8 9 9 10 9 7 7 6
7 6 6 6 6 6 4 4 3 4 4 4 6 6 7 8 10 10 8 4 5 6 6 6 6 9 10 10 9 9 11 9 7 7 7 7 6 6 7 7 8 8 8
6 6 6 5 5 4 4 4 3 3 4 5 5 7 6 6 7 8 9 8 7 6 7 7 7 9 10 11 9 10 12 10 6 6 6 7 7 7 6 7 8 9 10
6 6 5 4 4 4 4 4 3 3 4 5 5 6 6 5 5 9 10 10 9 7 7 9 10 11 10 9 10 12 9 6 5 6 7 8 7 7 6 5 6 7 9
7 6 4 4 4 4 3 4 4 4 5 5 5 6 6 6 6 5 4 5 6 6 6 7 9 10 9 9 9 7 6 6 6 7 7 7 5 5 5 5 5 4 5
6 5 4 4 4 4 4 5 6 6 7 6 6 6 6 7 7 7 5 5 4 4 4 3 4 4 5 5 5 5 5 5 6 6 6 6 6 6 5 4 4 4 5
5 4 4 4 3 3 4 4 8 9 11 12 12 10 7 10 12 11 10 10 9 6 3 4 5 6 6 6 6 6 5 5 5 6 6 6 6 6 6 4 5 5 6
5 5 4 4 4 4 4 4 5 6 8 11 12 12 12 12 12 12 11 9 7 5 5 6 6 6 7 6 6 6 6 5 5 5 6 6 6 6 5 5 5 6 6
5 5 4 4 4 4 4 4 4 5 6 5 6 9 10 11 11 11 8 4 4 4 5 6 7 7 6 6 6 6 6 5 5 5 5 6 5 5 5 6 6 7 6
3 3 3 3 3 3 4 4 4 5 6 6 6 6 7 7 8 7 4 4 5 5 6 6 7 6 6 6 6 6 6 5 5 5 5 5 5 5 5 6 6 7 7
3 4 3 2 3 3 3 4 4 5 5 6 6 6 5 3 4 4 3 5 5 6 6 7 6 6 6 6 6 6 5 5 5 5 4 4 4 4 6 6 6 6 6
2 2 3 2 3 3 3 4 4 4 5 5 6 7 6 5 6 7 6 5 6 6 6 6 6 6 6 5 5 5 6 5 5 4 4 4 4 4 5 5 6 6 6
1 1 1 2 3 3 3 4 4 4 5 6 6 6 7 5 6 6 6 6 6 6 6 6 6 6 5 5 5 5 5 5 5 4 4 4 4 4 4 5 5 5 5
1 1 1 2 2 3 4 4 4 5 5 5 6 6 5 5 6 6 7 7 6 6 5 5 5 6 5 4 4 4 5 5 5 5 5 5 4 4 5 5 6 6 6
0 1 2 2 3 3 4 4 4 4 5 5 5 6 6 6 7 7 7 6 6 5 5 4 5 7 7 5 3 3 3 4 4 4 6 5 5 5 5 5 6 7 6
1 1 2 2 3 3 4 4 4 5 5 5 5 6 6 6 6 6 6 5 6 6 6 5 4 5 6 6 4 3 2 3 4 4 4 4 6 6 6 6 6 6 6
1 2 2 2 3 3 3 4 4 5 5 5 6 6 6 6 6 5 5 5 5 5 5 4 5 5 5 4 4 3 3 3 4 4 4 4 6 6 6 5 7 6 6
Wind_Direction
175 177 171 176 175 175 190 206 208 219 229 238 251 262 269 271 267 254 260 260 261 272 276 266 268 263 259 254 236 229 227 223 254 271 260 269 275 283 294 290 280 271 266
175 171 176 178 175 184 208 216 211 225 236 239 249 259 265 264 260 253 263 262 257 265 270 269 272 269 260 256 245 243 241 229 238 268 275 270 264 272 279 285 285 277 267
169 171 178 184 185 198 212 215 216 226 240 246 245 254 264 268 263 257 254 260 260 260 261 260 267 266 264 259 253 252 251 249 233 250 268 265 267 272 280 281 281 278 276
171 174 185 194 196 204 209 215 223 227 240 252 252 254 261 265 263 261 257 259 263 265 261 257 259 254 256 260 259 255 252 254 246 248 261 266 265 268 263 273 283 275 279
171 181 197 197 194 200 211 223 233 239 245 249 257 264 266 264 257 255 254 258 261 269 270 263 259 259 255 252 254 253 247 249 252 251 259 264 265 265 260 261 274 284 276
178 192 191 184 191 204 215 223 235 249 254 253 254 260 268 266 271 270 259 256 259 262 269 273 273 270 271 269 266 261 242 240 246 247 252 254 262 259 259 258 266 275 277
184 190 187 187 196 209 215 218 234 245 248 256 259 259 264 270 274 277 271 258 256 258 260 267 274 275 277 275 277 277 264 250 238 238 248 251 255 250 249 258 253 253 258
183 190 190 187 199 206 209 227 238 240 244 253 261 262 266 273 275 277 278 265 259 259 258 258 262 272 272 270 275 277 273 266 253 243 244 250 251 251 242 249 258 262 264
188 195 194 190 196 201 215 232 234 235 247 250 258 262 266 276 278 278 277 262 262 266 264 258 256 265 270 269 267 270 276 276 265 251 245 251 254 252 241 240 242 245 260
197 198 193 189 193 204 217 225 223 226 245 258 265 263 261 269 277 279 271 242 260 269 271 265 256 257 267 268 260 259 266 271 278 283 272 264 259 255 239 229 231 237 248
190 185 185 188 197 207 214 217 224 235 253 262 270 273 266 263 273 275 266 234 243 263 271 272 266 259 264 267 258 251 252 262 275 275 276 274 266 255 246 233 227 228 235
172 178 187 193 202 204 207 224 226 230 253 266 273 282 276 268 263 270 268 254 239 247 262 267 269 270 271 271 265 256 258 261 261 262 264 264 261 258 252 244 237 234 237
168 183 193 198 205 205 210 223 228 225 239 258 262 271 280 280 272 265 266 265 253 243 256 263 271 278 281 274 263 263 263 252 245 250 255 258 256 257 259 254 246 240 244
177 190 192 197 214 219 221 220 223 230 238 250 256 262 271 278 278 273 264 264 262 256 262 273 279 277 269 265 271 267 252 242 239 247 256 261 261 256 252 245 245 239 244
181 190 196 205 214 227 232 229 227 231 224 231 247 248 256 270 269 260 256 259 254 255 271 276 276 281 282 277 272 270 263 250 244 246 250 258 260 259 256 242 235 231 234
184 197 204 210 217 227 244 265 246 242 250 242 242 244 248 249 267 277 269 261 260 249 230 256 270 274 275 276 280 283 275 261 254 253 253 252 254 255 256 246 232 233 240
189 200 204 212 221 228 235 248 273 280 262 256 252 250 246 258 267 271 271 269 261 218 223 252 261 266 269 270 270 272 274 271 263 257 255 254 250 249 249 248 240 237 242
194 207 209 218 225 231 238 243 249 264 283 287 271 259 261 263 267 269 268 257 248 217 234 250 259 263 264 266 268 268 270 271 264 259 257 255 250 247 248 248 242 239 241
194 211 215 222 228 236 244 249 254 257 262 272 284 287 278 273 271 267 231 220 246 253 250 252 256 259 262 263 265 265 265 266 265 261 258 255 250 245 246 248 247 242 241
206 224 220 221 235 244 249 254 262 265 269 274 278 281 291 292 284 279 239 237 247 255 256 257 258 258 259 261 263 264 264 262 262 260 258 257 254 247 247 249 247 242 238
207 236 238 232 242 249 254 259 264 266 270 276 277 275 271 273 274 275 269 257 251 254 256 258 260 261 259 259 259 262 264 264 262 262 262 259 256 253 251 248 247 245 242
181 213 230 246 257 260 263 263 265 268 272 276 282 288 282 268 269 270 268 265 259 254 252 253 258 258 255 255 256 257 262 266 266 264 264 263 259 257 254 249 246 244 243
191 249 272 271 268 272 275 273 273 276 279 283 288 291 290 284 279 276 275 274 272 267 260 254 260 264 258 250 246 247 257 266 269 267 265 264 261 256 254 253 250 248 245
241 264 274 280 279 276 277 281 280 281 284 286 289 290 291 290 287 284 282 281 279 273 268 262 261 265 268 262 253 249 255 267 274 268 262 261 262 258 252 253 253 250 251
262 272 274 278 283 285 285 285 286 287 289 289 289 291 293 292 290 289 288 286 285 284 285 279 270 268 270 272 270 268 270 269 271 274 266 257 259 260 256 255 253 250 247
274 278 278 279 279 280 280 284 287 291 291 291 290 290 293 293 292 292 294 294 295 294 291 286 281 283 289 288 289 300 295 281 273 267 262 256 255 255 254 252 251 248 247